This is the latest recevied weather packets stored in our database for station/object EA3KZ-1. If no packets are shown the sender has not sent any weather packets the latest 10 day(s).
| Time | Temp. | Humidity | Pressure | Rain* | Wind** | Luminosity | Snow |
|---|---|---|---|---|---|---|---|
| 1787644525 | 25.56° C | 58% | 1008.9 hPa | 0 mm | - | - | - |
| 1787643923 | 25.56° C | 58% | 1009 hPa | 0 mm | - | - | - |
| 1787643320 | 25° C | 57% | 1008.8 hPa | 0 mm | - | - | - |
| 1787642718 | 25° C | 61% | 1008.8 hPa | 0 mm | - | - | - |
| 1787642115 | 23.89° C | 63% | 1008.6 hPa | 0 mm | - | - | - |
| 1787641573 | 23.89° C | 64% | 1008.6 hPa | 0 mm | - | - | - |
| 1787640970 | 23.33° C | 66% | 1008.5 hPa | 0 mm | - | - | - |
| 1787640367 | 23.33° C | 67% | 1008.4 hPa | 0 mm | - | - | - |
| 1787639765 | 22.78° C | 67% | 1008.3 hPa | 0 mm | - | - | - |
| 1787639162 | 22.22° C | 70% | 1008.3 hPa | 0 mm | - | - | - |
| 1787638560 | 21.11° C | 74% | 1008.3 hPa | 0 mm | - | - | - |
| 1787637957 | 21.11° C | 75% | 1008.4 hPa | 0 mm | - | - | - |
| 1787637354 | 21.11° C | 75% | 1008.2 hPa | 0 mm | - | - | - |
| 1787636752 | 20.56° C | 76% | 1008.3 hPa | 0 mm | - | - | - |
| 1787636149 | 20.56° C | 76% | 1008 hPa | 0 mm | - | - | - |
| 1787635547 | 20.56° C | 76% | 1008.1 hPa | 0 mm | - | - | - |
| 1787634944 | 20.56° C | 77% | 1008 hPa | 0 mm | - | - | - |
| 1787634341 | 21.11° C | 77% | 1007.9 hPa | 0 mm | - | - | - |
| 1787633739 | 21.11° C | 78% | 1007.8 hPa | 0 mm | - | - | - |
| 1787633136 | 20.56° C | 78% | 1007.8 hPa | 0 mm | - | - | - |
| 1787632534 | 20.56° C | 78% | 1007.8 hPa | 0 mm | - | - | - |
| 1787631931 | 20.56° C | 77% | 1007.8 hPa | 0 mm | - | - | - |
| 1787631329 | 21.11° C | 77% | 1007.8 hPa | 0 mm | - | - | - |
| 1787630726 | 21.11° C | 77% | 1007.7 hPa | 0 mm | - | - | - |
| 1787630123 | 20.56° C | 78% | 1007.6 hPa | 0 mm | - | - | - |
* Rain latest hour (hover to see other rain measurements)
** Current wind speed in m/s (hover to see current wind gust speed)